Location: Aalen
(48.8330°N, 10.1000°E)
Time: 12:39:14
(UTC+02:00)

YUBILEINY - Visible Passes

Search period start: 20 September 2021 00:00
Search period end: 30 September 2021 00:00
Orbit: 1477 x 1509 km, 82.5° (Epoch: 19 September)

Date Brightness Start Highest point End Pass type
(mag) Time Alt. Az. Time Alt. Az. Time Alt. Az.
20 Sep ? 01:14:37 65° NNE 01:14:37 65° NNE 01:21:52 10° NNE visible
20 Sep ? 03:10:31 29° WNW 03:10:56 29° WNW 03:18:17 10° N visible
21 Sep ? 00:25:30 43° ENE 00:25:30 43° ENE 00:32:01 10° NNE visible
21 Sep ? 02:21:25 46° NW 02:21:25 46° NW 02:29:01 10° N visible
21 Sep ? 04:17:19 10° WNW 04:20:19 12° NW 04:23:31 10° NNW visible
21 Sep ? 23:36:23 27° ENE 23:36:23 27° ENE 23:41:47 10° NNE visible
22 Sep ? 01:32:18 63° NNW 01:32:18 63° NNW 01:39:32 10° N visible
22 Sep ? 03:28:13 20° WNW 03:29:17 20° NW 03:35:26 10° N visible
22 Sep ? 22:47:16 15° ENE 22:47:16 15° ENE 22:50:43 10° NE visible
23 Sep ? 00:43:11 54° NE 00:43:11 54° NE 00:49:51 10° NNE visible
23 Sep ? 02:39:05 33° WNW 02:39:05 33° WNW 02:46:26 10° N visible
23 Sep ? 23:54:03 36° NE 23:54:03 36° NE 23:59:54 10° NNE visible
24 Sep ? 01:49:57 50° NW 01:49:57 50° NW 01:57:06 10° N visible
24 Sep ? 03:45:52 13° WNW 03:47:52 14° NW 03:52:11 10° NNW visible
24 Sep ? 23:04:55 22° ENE 23:04:55 22° ENE 23:09:30 10° NNE visible
25 Sep ? 01:00:49 59° N 01:00:49 59° N 01:07:33 10° N visible
25 Sep ? 02:56:44 23° WNW 02:56:59 24° WNW 03:03:41 10° N visible
25 Sep ? 22:15:46 12° ENE 22:15:46 12° ENE 22:17:49 10° NE visible
26 Sep ? 00:11:41 46° NE 00:11:41 46° NE 00:17:48 10° NNE visible
26 Sep ? 02:07:35 37° NW 02:07:35 37° NW 02:14:33 10° N visible
26 Sep ? 23:22:32 30° NE 23:22:32 30° NE 23:27:44 10° NNE visible
27 Sep ? 01:18:26 52° NNW 01:18:26 52° NNW 01:25:10 10° N visible
27 Sep ? 03:14:21 16° WNW 03:15:28 17° NW 03:20:39 10° NNW visible
27 Sep ? 22:33:23 19° ENE 22:33:23 19° ENE 22:37:08 10° NNE visible
28 Sep ? 00:29:16 53° NNE 00:29:16 53° NNE 00:35:33 10° NNE visible
28 Sep ? 02:25:11 27° NW 02:25:11 27° NW 02:31:53 10° N visible
28 Sep ? 23:40:07 39° NE 23:40:07 39° NE 23:45:44 10° NNE visible
29 Sep ? 01:36:01 41° NW 01:36:01 41° NW 01:42:40 10° N visible
29 Sep ? 03:31:55 10° WNW 03:34:11 11° NW 03:36:46 10° NNW visible
29 Sep ? 22:50:56 26° NE 22:50:56 26° NE 22:55:33 10° NNE visible
